Location: Newark
(49.2191°N, 12.6671°E)
Time: 21:15:09
(UTC+00:00)

Transit 4A - Pass Details

Date: 26 January 2020
Orbit: 872 x 973 km, 66.8° (Epoch: 20 February)

Event Time Altitude Azimuth Distance (km) Brightness Sun altitude
Rises 04:28:32 0° 175° (S) 3,546 11.0 -22.8°
Reaches altitude 10° 04:31:27 10° 163° (SSE) 2,591 10.5 -22.3°
Maximum altitude 04:36:15 26° 109° (ESE) 1,703 10.0 -21.5°
Drops below altitude 10° 04:41:00 10° 56° (NE) 2,556 10.9 -20.7°
Sets 04:43:51 0° 44° (NE) 3,488 11.5 -20.3°
